Deer Park, WA

10:31 AM PDT on July 27, 2017 (GMT -0700)
Deer Park

Weather History for KDEW - October, 2012

Change the Weather History Date:

Thursday, October 4, 2012

  Actual Average Record
Temperature  
Mean Temperature 42 °F 49 °F  
Max Temperature 60 °F 64 °F 82 °F (2003)
Min Temperature 23 °F 33 °F 23 °F (1999)
Degree Days  
Heating Degree Days 23 16  
Month to date heating degree days 64 63  
Since 1 July heating degree days 374 482  
Cooling Degree Days 0 0  
Month to date cooling degree days 0 0  
Year to date cooling degree days 232 187  
Moisture  
Dew Point 21 °F    
Average Humidity 48    
Maximum Humidity 78    
Minimum Humidity 17    
Precipitation  
Precipitation 0.00 in 0.03 in 0.21 in (2008)
Month to date precipitation 0.00 0.14  
Year to date precipitation 17.76 14.58  
Sea Level Pressure  
Sea Level Pressure 30.35 in    
Wind  
Wind Speed 7 mph (NNE)    
Max Wind Speed 17 mph    
Max Gust Speed 22 mph    
Visibility 10 miles    
Events      
T = Trace of Precipitation, MM = Missing Value Source: NWS Daily Summary

Daily Weather History Graph

Daily Weather History Graph

Search for Another Location

Airport or City:

Trip Planner

Search our weather history database for the weather conditions in past years. The results will help you decide how hot, cold, wet, or windy it might be!

Date:

Astronomy

Oct. 04, 2012 Rise Set
Actual Time 6:53 AM PDT 6:21 PM PDT
Civil Twilight 6:23 AM PDT 6:52 PM PDT
Nautical Twilight 5:47 AM PDT 7:28 PM PDT
Astronomical Twilight 5:10 AM PDT 8:04 PM PDT
Moon 8:40 PM PDT (10/4) 11:35 AM PDT (10/4)
Length of Visible Light 12h 29m
Length of Day
11h 27m
Waning Gibbous, 81% of the Moon is Illuminated
Oct 4
Waning Gibbous
Oct 8
Last Quarter
Oct 15
New
Oct 21
First Quarter
Oct 29
Full

Hourly Weather History & Observations

Time (PDT) Temp. Windchill Dew Point Humidity Pressure Visibility Wind Dir Wind Speed Gust Speed Precip Events Conditions
12:53 AM 42.1 °F 36.6 °F 28.0 °F 58% 30.36 in 10.0 mi NE 9.2 mph - N/A   Clear
1:53 AM 36.0 °F 33.3 °F 27.0 °F 70% 30.37 in 10.0 mi East 3.5 mph - N/A   Clear
2:53 AM 36.0 °F 29.0 °F 27.0 °F 70% 30.36 in 10.0 mi NE 9.2 mph - N/A   Clear
3:53 AM 36.0 °F 29.0 °F 27.0 °F 70% 30.35 in 10.0 mi NNE 9.2 mph - N/A   Clear
4:53 AM 37.0 °F 30.4 °F 27.0 °F 67% 30.35 in 10.0 mi NNE 9.2 mph - N/A   Clear
5:53 AM 35.1 °F 29.3 °F 26.1 °F 70% 30.36 in 10.0 mi NNE 6.9 mph - N/A   Clear
6:53 AM 30.9 °F 26.2 °F 25.0 °F 79% 30.38 in 10.0 mi NNE 4.6 mph - N/A   Clear
7:53 AM 36.0 °F 31.1 °F 26.1 °F 67% 30.38 in 10.0 mi NNE 5.8 mph - N/A   Clear
8:53 AM 44.1 °F 39.0 °F 27.0 °F 51% 30.37 in 10.0 mi NE 9.2 mph - N/A   Clear
9:53 AM 48.9 °F - 27.0 °F 43% 30.37 in 10.0 mi NE 13.8 mph 19.6 mph N/A   Clear
10:53 AM 52.0 °F - 21.9 °F 31% 30.37 in 10.0 mi NNE 13.8 mph - N/A   Clear
11:53 AM 55.0 °F - 19.9 °F 25% 30.35 in 10.0 mi NNE 13.8 mph - N/A   Clear
12:53 PM 57.0 °F - 18.0 °F 22% 30.33 in 10.0 mi NE 12.7 mph 16.1 mph N/A   Clear
1:53 PM 57.9 °F - 19.0 °F 22% 30.32 in 10.0 mi NE 6.9 mph 19.6 mph N/A   Clear
2:53 PM 60.1 °F - 16.0 °F 18% 30.31 in 10.0 mi Variable 5.8 mph - N/A   Clear
3:53 PM 57.9 °F - 15.1 °F 19% 30.30 in 10.0 mi Variable 3.5 mph 17.3 mph N/A   Clear
4:53 PM 57.0 °F - 14.0 °F 18% 30.30 in 10.0 mi ENE 6.9 mph - N/A   Clear
5:53 PM 54.0 °F - 15.1 °F 22% 30.31 in 10.0 mi East 5.8 mph - N/A   Clear
6:53 PM 48.0 °F - 16.0 °F 28% 30.33 in 10.0 mi East 3.5 mph - N/A   Clear
7:53 PM 37.9 °F 35.5 °F 15.1 °F 39% 30.35 in 10.0 mi Variable 3.5 mph - N/A   Clear
8:53 PM 32.0 °F 28.7 °F 15.1 °F 50% 30.35 in 10.0 mi NNW 3.5 mph - N/A   Clear
9:53 PM 28.0 °F 20.8 °F 15.1 °F 58% 30.35 in 10.0 mi NW 6.9 mph - N/A   Clear
10:53 PM 28.0 °F 24.2 °F 15.1 °F 58% 30.35 in 10.0 mi NW 3.5 mph - N/A   Clear
11:53 PM 27.0 °F 23.0 °F 17.1 °F 66% 30.36 in 10.0 mi West 3.5 mph - N/A   Clear